Flag for Venezuela Weather past 2 weeks in Barquisimeto, Venezuela

Now
75 °F

Passing clouds.


Feels Like: 75 °F
Forecast: 67 / 90 °F
Wind: 12 mph from Southeast

Location: Barquisimeto Airport

Current Time: Sep 20, 2014 at 2:07:24 AM

Latest Report: Sep 19, 2014 at 10:30 PM


Visibility: N/A

Pressure: 30.01 "Hg

Humidity: 89%

Dew point: 72 °F

Location of BarquisimetoLocation

Historic Weather in Barquisimeto — Graph

°F

Barquisimeto temperature yesterday

Maximum temperature yesterday: 90 °F (at 3:30 PM)
Minimum temperature yesterday: 70 °F (at 5:30 AM)
Average temperature yesterday: 80 °F

Past Weeks' High & Low Weather Summary

 TemperatureHumidityPressure
High90 °F (Sep 16, 2:30 PM)100% (Sep 8, 1:30 AM)30.07 "Hg (Sep 8, 1:30 AM)
Low68 °F (Sep 8, 1:30 AM)46% (Sep 10, 2:30 PM)29.89 "Hg (Sep 11, 3:30 PM)
Average78 °F76%30.00 "Hg
* Reported Sep 4 10:30 PM — Sep 19 10:30 PM, Barquisimeto, Weather by CustomWeather, © 2014

Note: Actual official high and low records may vary slightly from our data, if they occured in-between our weather recording intervals... More about our weather records

Advertising

Barquisimeto weather history for previous 24 hours

 ConditionsComfort  
Time TempWeatherWind HumidityBarometerVisibility
10:30 PM
Sep 19
75 °FPassing clouds.12 mph89%30.01 "HgN/A
9:30 PM75 °FPassing clouds.15 mph89%30.01 "HgN/A
8:30 PM75 °FPassing clouds.17 mph78%29.98 "HgN/A
7:30 PM77 °FPassing clouds.13 mph79%29.95 "HgN/A
6:30 PM81 °FPassing clouds.18 mph66%29.92 "HgN/A
5:30 PM82 °FPartly sunny.17 mph62%29.92 "HgN/A
4:30 PM88 °FBroken clouds.18 mph46%29.92 "HgN/A
3:30 PM90 °FBroken clouds.15 mph46%29.92 "HgN/A
2:30 PM88 °FScattered clouds.18 mph49%29.95 "HgN/A
1:30 PM88 °FScattered clouds.18 mph49%29.98 "HgN/A
12:30 PM88 °FScattered clouds.14 mph49%30.01 "HgN/A
11:30 AM84 °FScattered clouds.14 mph58%30.01 "HgN/A
10:30 AM77 °FScattered clouds.16 mph69%30.04 "HgN/A
9:30 AM82 °FScattered clouds.12 mph58%30.04 "HgN/A
8:30 AM77 °FPassing clouds.2 mph74%30.01 "HgN/A
7:30 AM73 °FPassing clouds.5 mph83%30.01 "HgN/A
6:30 AM70 °FPassing clouds.3 mph100%29.98 "HgN/A
5:30 AM70 °FPassing clouds.5 mph100%29.98 "HgN/A
Weather by CustomWeather, © 2014

See weather overviewHow to use our weather pages